{"data":{"norad_id":48130,"epoch":"2026-05-24T18:35:35.199744Z","epoch_age_seconds":98470,"freshness":"FRESH","line1":"1 48130U 21027AQ  26144.77471296 -.00000099  00000+0  85682-5 0  9990","line2":"2 48130  53.1585 174.3104 0001238  89.6632 270.4511 15.31699310284139","mean_motion":15.3169931,"eccentricity":0.0001238,"inclination_deg":53.1585,"raan_deg":174.3104,"arg_perigee_deg":89.6632,"mean_anomaly_deg":270.4511,"bstar":8.5682e-6,"rev_number":28413,"period_min":94.013230312156,"perigee_km":469.89416085387,"apogee_km":471.58994330716,"semimajor_km":6848.8790520805,"source":"CELESTRAK","updated_at":"2026-05-25T13:38:16.648028Z"}}